Simultaneous Nadir Overpasses (SNOs) Predictions

Prediction of SNOs between AQUA and METOP-A Satellite Orbit:

Table of predicted SNOs for the next 14.0 days since TLE Epoch: 12/13/2019
Index Date (AQUA) Time (AQUA) Lat,Lon (AQUA) SZA (AQUA ) Date (METOP-A) Time (METOP-A) Lat,Lon (METOP-A) SZA (METOP-A ) Distance(km) Time Diff (sec)
1 12/16/2019 06:33:35 -75.71,-108.87 80.90 12/16/2019 06:32:53 -75.71,-108.77 80.90 2.67 42
2 12/16/2019 07:23:04 75.77, 58.60 99.17 12/16/2019 07:23:32 75.75, 58.68 99.15 3.25 28
3 12/19/2019 02:07:51 -75.72, -42.46 80.78 12/19/2019 02:07:16 -75.72, -42.38 80.77 2.02 35
4 12/19/2019 02:57:20 75.78, 125.00 99.29 12/19/2019 02:57:55 75.75, 125.06 99.26 3.19 35
5 12/21/2019 21:42:07 -75.74, 23.94 80.71 12/21/2019 21:41:39 -75.73, 23.99 80.72 1.90 28
6 12/21/2019 22:31:35 75.75,-168.46 99.31 12/21/2019 22:32:18 75.76,-168.57 99.32 3.30 43
7 12/24/2019 17:16:22 -75.76, 90.31 80.70 12/24/2019 17:16:01 -75.73, 90.37 80.72 3.10 21
8 12/24/2019 18:05:50 75.77,-102.09 99.32 12/24/2019 18:06:40 75.76,-102.21 99.31 3.58 50
9 12/27/2019 12:01:00 75.16, -9.20 98.57 12/27/2019 11:59:55 75.11, -12.45 98.69 93.07 65
10 12/27/2019 12:50:37 -75.73, 156.82 80.80 12/27/2019 12:50:24 -75.73, 156.73 80.79 2.54 13




NCC Satellite Simultaneous Nadir Overpasses (SNOs) Prediction Service
